Regional Weather Roundup
Issued by NWS

Home | Current Version | Previous Version | Text Only | Print | Product List | Glossary On
Versions: 1 2 3 4 5 6 7 8 9 10 11 12 13 14 15 16 17 18 19 20 21 22 23 24 25 26 27 28 29 30 31 32 33 34 35 36 37 38 39 40 41 42 43 44 45 46 47 48 49
000
ASUS45 KBOU 030107
RWRCO

WEATHER ROUNDUP FOR COLORADO
NATIONAL WEATHER SERVICE DENVER/BOULDER CO
600 PM MST MON MAR 02 2015

NOTE: "FAIR" INDICATES FEW OR NO CLOUDS BELOW 12000 FEET WITH NO
SIGNIFICANT WEATHER AND/OR OBSTRUCTIONS TO VISIBILITY.

COZ001>005-013-030-031-030200-
...NORTHWEST COLORADO...

CITY           SKY/WX    TMP DP  RH WIND       PRES   REMARKS
CRAIG          MIX PCPN  34  32  92 SW8       29.64S WCI  27
HAYDEN         CLOUDY    34  28  80 W15       29.64R WCI  24
MEEKER         LGT SNOW  34  31  88 W10       29.66S FOG     WCI  26
MOUNT WERNER   NOT AVBL
STEAMBOAT SPGS CLOUDY    39  32  75 SW16G23   29.62R
WALDEN         MOCLDY    36  27  69 S18G25    29.57F
$$

COZ006>008-011-030200-
...WEST CENTRAL VALLEYS...

CITY           SKY/WX    TMP DP  RH WIND       PRES   REMARKS
GRAND JUNCTION LGT RAIN  39  36  89 NW15G28   29.71R
MONTROSE       LGT RAIN  40  34  79 W14       29.77
EAGLE          LGT RAIN  43  36  75 SW10      29.64R
RIFLE          RAIN      38  35  89 W21G31    29.67R FOG
DELTA          CLOUDY    45  39  79 SW16G22   29.71R
NUCLA          RAIN      36  34  93 W10       29.82R
$$

COZ017>023-064>068-030200-
...SOUTHWEST COLORADO...

CITY           SKY/WX    TMP DP  RH WIND       PRES   REMARKS
DURANGO        NOT AVBL
CORTEZ         MIX PCPN  36  33  89 W10       29.86R
PAGOSA SPRINGS TSTM      39  38  95 SW12      29.78S
TELLURIDE      SNOW      32  32 100 W21G30    29.78R VSB<1/4 WCI  20
WOLF CREEK PAS CLOUDY    25  25 100 MISG      29.78F
$$

COZ009-010-012-014-032>034-037-058>063-030200-
...CENTRAL COLORADO...

CITY           SKY/WX    TMP DP  RH WIND       PRES   REMARKS
ASPEN          LGT RAIN  37  31  78 W3        29.65R
BUENA VISTA    CLOUDY    38  31  74 SE22G29   29.66S
COPPER MTN     CLOUDY    30  19  64 SE21G30   29.69F HAZE    WCI  17
BERTHOUD PASS  CLOUDY    23  18  80 S6G22     29.74F WCI  16
COTTONWOOD PAS CLOUDY    37  25  60 CALM      29.69F
GUNNISON       NOT AVBL
KREMMLING      CLOUDY    37  30  75 W7        29.59F
LEADVILLE      CLOUDY    33  20  58 SE10      29.65F WCI  25
SALIDA         CLOUDY    43  32  65 S17G25    29.73F
SUNLIGHT       HVY SNOW  30  30 100 SW5         N/A  VSB<1/4 WCI  25
WILKERSON PASS CLOUDY    28  23  80 S8G16     29.74F WCI  20
$$

COZ069>075-030200-
...SAN LUIS VALLEY/SANGRE DE CRISTO MOUNTAINS...

CITY           SKY/WX    TMP DP  RH WIND       PRES   REMARKS
ALAMOSA        CLOUDY    38  30  73 S15       29.74F
LA VETA PASS   MOCLDY    32  28  86 S24G41    29.74S WCI  19
SAGUACHE       DRIZZLE   36  34  93 S8        29.74F
$$

COZ035-036-038>040-030200-
...NORTHERN COLORADO FRONT RANGE...

CITY           SKY/WX    TMP DP  RH WIND       PRES   REMARKS
DENVER INTL AP MOCLDY    30  22  72 NW7       29.59F HAZE    WCI  23
DMNS CITY PARK   N/A     30  22  71 NE3       29.59F
AURORA         MOCLDY    28  23  82 N5        29.60F FOG     WCI  22
FRONT RANGE AP NOT AVBL
ERIE MUNI ARPT PTCLDY    30  24  79 CALM      29.60F HAZE
BOULDER MUN AP PTCLDY    32  23  69 CALM      29.59F HAZE
CENTENNIAL     MOCLDY    34  25  69 N7        29.58F HAZE    WCI  28
BROOMFIELD     NOT AVBL
FORT COLLINS   MOCLDY    30  23  74 S3        29.61F
LONGMONT       MOCLDY    32  24  71 CALM      29.62F
$$

COZ041-046-047-076>085-087-088-030200-
...PIKES PEAK/PALMER DIVIDE AND SOUTHERN FOOTHILLS...

CITY           SKY/WX    TMP DP  RH WIND       PRES   REMARKS
COLO. SPRINGS  MOCLDY    31  26  82 CALM      29.69F
A. F. ACADEMY  PTCLDY    32  25  77 SE5       29.67F WCI  27
ELLICOTT       NOT AVBL
FALCON         MOCLDY    29  26  90 N5        29.68F WCI  24
FORT CARSON    PTCLDY    32  27  81 S2        29.67F
LIMON          MOCLDY    31  25  78 SE15      29.67F WCI  20
MONUMENT HILL  PTCLDY    34  27  75 S15       29.63F WCI  24
TRINIDAD       CLOUDY    40  31  70 W18       29.71F
$$

COZ042>045-048>051-090-091-030200-
...NORTHEAST COLORADO...

CITY           SKY/WX    TMP DP  RH WIND       PRES   REMARKS
GREELEY ARPT   MOCLDY    34  19  55 SW5       29.60F WCI  30
AKRON          CLOUDY    32  28  85 SE16      29.61F WCI  21
BURLINGTON     CLOUDY    33  29  85 S22G35    29.70F WCI  21
WRAY           CLOUDY    34  30  85 SE10      29.71F WCI  26
STERLING       CLOUDY    32  28  86 SE7       29.64F WCI  26
HOLYOKE        NOT AVBL
FORT MORGAN    CLOUDY    35  27  72 NE8       29.60F WCI  28
$$

COZ086-089-092>099-030200-
...SOUTHEAST COLORADO...

CITY           SKY/WX    TMP DP  RH WIND       PRES   REMARKS
PUEBLO         MOCLDY    35  30  82 S3        29.68
LA JUNTA       CLOUDY    37  31  78 N6        29.69F
LAMAR          CLOUDY    36  32  85 E7        29.67F
SPRINGFIELD      N/A     34  30  85 S30G36    29.76S WCI  20
$$


USA.gov is the U.S. government's official web portal to all federal, state and local government web resources and services.